This is the latest recevied weather packets stored in our database for station/object DK6GC-10. If no packets are shown the sender has not sent any weather packets the latest 10 day(s).
| Time | Temp. | Humidity | Pressure | Rain* | Wind** | Luminosity | Snow |
|---|---|---|---|---|---|---|---|
| 1788031819 | 22.22° C | 52% | 1015.8 hPa | - | - | - | - |
| 1788030919 | 21.67° C | 52% | 1015.9 hPa | - | - | - | - |
| 1788030018 | 21.11° C | 56% | 1015.8 hPa | - | - | - | - |
| 1788029118 | 21.11° C | 55% | 1015.7 hPa | - | - | - | - |
| 1788028218 | 21.67° C | 54% | 1015.7 hPa | - | - | - | - |
| 1788027317 | 22.22° C | 50% | 1015.8 hPa | - | - | - | - |
| 1788026423 | 22.78° C | 48% | 1015.8 hPa | - | - | - | - |
| 1788025522 | 23.33° C | 47% | 1015.8 hPa | - | - | - | - |
| 1788024622 | 23.89° C | 46% | 1015.8 hPa | - | - | - | - |
| 1788023722 | 25° C | 44% | 1015.7 hPa | - | - | - | - |
| 1788022822 | 24.44° C | 44% | 1015.8 hPa | - | - | - | - |
| 1788021922 | 25.56° C | 42% | 1015.8 hPa | - | - | - | - |
| 1788021022 | 24.44° C | 45% | 1015.8 hPa | - | - | - | - |
| 1788020121 | 24.44° C | 43% | 1015.7 hPa | - | - | - | - |
| 1788019221 | 25° C | 44% | 1015.9 hPa | - | - | - | - |
| 1788018321 | 25° C | 43% | 1015.8 hPa | - | - | - | - |
| 1788017420 | 25.56° C | 43% | 1015.8 hPa | - | - | - | - |
| 1788016520 | 26.11° C | 41% | 1016.1 hPa | - | - | - | - |
| 1788015620 | 25.56° C | 43% | 1016.2 hPa | - | - | - | - |
| 1788014720 | 27.78° C | 40% | 1016.3 hPa | - | - | - | - |
| 1788013820 | 26.67° C | 41% | 1016.3 hPa | - | - | - | - |
| 1788012919 | 26.67° C | 43% | 1016.4 hPa | - | - | - | - |
| 1788012019 | 25° C | 48% | 1016.7 hPa | - | - | - | - |
| 1788011119 | 25° C | 48% | 1016.7 hPa | - | - | - | - |
| 1788010219 | 25.56° C | 46% | 1016.7 hPa | - | - | - | - |
* Rain since midnight (hover to see other rain measurements)
** Current wind speed in m/s (hover to see current wind gust speed)